[[{"header":{"parameterUnit":"m.s-1","parameterCategory":1,"la1":30.2991,"la2":30.254,"lo1":-89.0895,"lo2":-89.0444,"dy":0.0017,"dx":0.0017,"nx":28,"ny":28,"refTime":"2024-03-19T09:00:00:Z","depth":0,"parameterNumber":2,"parameterNumberName":"U-component_of_WINDS"},"data":[0,0,0,0,0,0,0,0,0,0,0,0,0,0,0,0,0,0,0,0,0,0,0,0,0,0,0,0,0,0,0,0,0,0,0,0,0,0,0,0,0,0,0,0,0,0,0,0,0,0,0,0,0,0,0,0,0,0,0.3346,0.3347,0,0.34,0.3401,0.3401,0.3432,0.3432,0.3432,0.3432,0.3486,0.3487,0.3488,0,0,0,0,0,0,0,0,0,0,0,0,0,0.3269,0.327,0.3346,0.3347,0.3348,0.34,0.3401,0.3401,0.3432,0.3432,0.3432,0.3432,0.3485,0.3487,0.3488,0,0,0,0,0,0,0,0,0,0,0,0,0,0.331,0.327,0.3346,0.3369,0.3372,0.34,0.3401,0.3402,0.3432,0.3432,0.3432,0.3432,0.3485,0.3487,0.3489,0.3497,0,0,0.3495,0.3496,0,0,0,0,0,0,0,0,0.3308,0.3313,0.3365,0.3368,0.3371,0.3409,0.3393,0.3434,0.3432,0.3409,0.3432,0.3432,0.346,0.3464,0.3474,0.35,0.3502,0.3495,0.3496,0.3497,0.3498,0,0,0,0,0,0,0,0.3305,0.3311,0.3367,0.3366,0.3369,0.3376,0.3382,0.3401,0.3433,0.3411,0.3413,0.3419,0.3462,0.3472,0.3475,0.3503,0.3495,0.3497,0.3498,0.3499,0.3539,0.3539,0,0,0,0,0,0,0.3299,0.3308,0.3366,0.3369,0.3339,0.3378,0.3384,0.3397,0.3433,0.3438,0.3419,0.3421,0.3468,0.3473,0.3477,0.349,0.3497,0.3499,0.35,0.3539,0.3539,0.3539,0,0,0,0,0,0,0.3297,0.3303,0.3364,0.3339,0.3348,0.3379,0.3392,0.3398,0.3408,0.3439,0.3445,0.3424,0.3469,0.3474,0.3492,0.3492,0.35,0.3501,0.3539,0.3539,0.3539,0.3515,0,0,0,0,0,0,0.3294,0.3303,0.3307,0.3339,0.3349,0.3378,0.3392,0.3399,0.3411,0.3414,0.3445,0.345,0.3469,0.3489,0.3494,0.3495,0.3503,0.3539,0.3539,0.3539,0.3516,0.3514,0.3512,0,0,0,0,0,0.3292,0.3297,0.3307,0.3313,0.3354,0.3378,0.3383,0.3406,0.3411,0.3415,0.3435,0.3449,0.3491,0.3491,0.3497,0.3498,0.3539,0.3539,0.3539,0.3516,0.3514,0.3512,0,0,0,0,0,0,0.3263,0.3302,0.3313,0.3329,0.335,0.3383,0.3389,0.3403,0.3422,0.3423,0.345,0.3456,0.3471,0.3487,0.3485,0.3508,0.3517,0.3518,0.3498,0.3496,0.3494,0.349,0.3505,0,0,0,0,0,0.3259,0.3275,0.3308,0.332,0.333,0.3357,0.3368,0.3384,0.3406,0.3415,0.3436,0.3457,0.3475,0.3486,0.3505,0.3518,0.3525,0.3522,0.352,0.3518,0.3519,0.3527,0.3526,0.3538,0.3538,0.3538,0,0,0.325,0.3274,0.3282,0.3315,0.3333,0.3348,0.3365,0.3381,0.3392,0.3417,0.3436,0.3452,0.3477,0.3492,0.35,0.3505,0.3517,0.3518,0.3517,0.3518,0.3526,0.3525,0.3524,0.3538,0.3538,0.3538,0,0,0.3242,0.3262,0.3274,0.3291,0.3318,0.3337,0.334,0.337,0.3382,0.3401,0.342,0.3434,0.3465,0.3482,0.3494,0.3493,0.3506,0.3498,0.3489,0.3496,0.3495,0.3494,0.3493,0.3493,0.3498,0.3498,0.3498,0,0.3228,0.3253,0.3278,0.3293,0.3306,0.333,0.3342,0.3358,0.3389,0.3397,0.3403,0.3442,0.346,0.348,0.348,0.3489,0.3493,0.3494,0.3493,0.3493,0.3492,0.3492,0.3491,0.3497,0.3497,0.3497,0.3498,0,0.3234,0.3251,0.3257,0.3287,0.3301,0.3314,0.3341,0.3352,0.3366,0.3384,0.3402,0.3425,0.3449,0.3455,0.3469,0.3476,0.3479,0.3488,0.3497,0.349,0.3489,0.3489,0.3495,0.3496,0.3496,0.3497,0,0,0.3209,0.3253,0.3255,0.3269,0.33,0.3314,0.3328,0.3351,0.336,0.3381,0.3393,0.3419,0.3428,0.3442,0.3458,0.3465,0.3461,0.3474,0.3475,0.347,0.3471,0.3463,0.3462,0.3471,0.3471,0.3471,0.3468,0,0.3205,0.3232,0.3255,0.3273,0.3289,0.3312,0.3324,0.3345,0.3362,0.3377,0.3396,0.3413,0.3424,0.3433,0.3441,0.346,0.3462,0.3461,0.3482,0.3482,0.3474,0.3462,0.3454,0.3451,0.3469,0.3469,0.3469,0,0.3205,0.3225,0.3245,0.3275,0.3283,0.3293,0.3316,0.3331,0.3355,0.3366,0.3382,0.3399,0.3415,0.3423,0.3444,0.3443,0.3453,0.3464,0.3464,0.3466,0.3474,0.3464,0.345,0.3449,0.3469,0.3469,0.3469,0,0.3184,0.3216,0.3233,0.3244,0.328,0.3286,0.3302,0.3325,0.3338,0.3358,0.3366,0.3387,0.3399,0.3415,0.3437,0.3441,0.3456,0.3466,0.3465,0.3465,0.3467,0.3466,0.3454,0.3474,0.3474,0.3474,0.3474,0,0.3177,0.3188,0.3224,0.3234,0.3247,0.3273,0.3285,0.3302,0.3323,0.3336,0.3357,0.3369,0.3398,0.3413,0.343,0.3445,0.345,0.346,0.3464,0.3457,0.3456,0.3464,0.3464,0.3474,0.3474,0.3474,0.3474,0,0.3156,0.318,0.3199,0.3232,0.324,0.3248,0.3276,0.3286,0.3304,0.3321,0.3326,0.3354,0.3373,0.3397,0.3423,0.3435,0.3448,0.3455,0.344,0.3442,0.344,0.344,0.3432,0.3432,0.3453,0.3452,0.3452,0,0.3149,0.3159,0.3192,0.3203,0.3217,0.3234,0.3247,0.3273,0.3285,0.3313,0.332,0.334,0.3358,0.3387,0.341,0.343,0.3437,0.3433,0.3441,0.3434,0.3437,0.3436,0.3436,0.3431,0.3431,0.3431,0.343,0,0.3135,0.3147,0.3165,0.3188,0.3203,0.3221,0.3241,0.3248,0.3278,0.3291,0.3311,0.3324,0.3352,0.3372,0.3395,0.341,0.3425,0.3428,0.3429,0.3422,0.3413,0.3417,0.3434,0.3428,0.3428,0.3428,0.3429,0.3429,0.3121,0.313,0.3155,0.3175,0.3192,0.321,0.3221,0.3241,0.3259,0.3283,0.3297,0.3316,0.3339,0.3372,0.3387,0.3402,0.3407,0.3409,0.3409,0.3409,0.3406,0.3411,0.3406,0.3406,0.3406,0.3406,0.3407,0,0.3108,0.3125,0.3143,0.317,0.3185,0.3199,0.3221,0.3232,0.3249,0.327,0.3287,0.331,0.333,0.3354,0.3375,0.3382,0.339,0.3387,0.3386,0.3389,0.3401,0.3397,0.3381,0.3381,0.3381,0.3381,0.3381,0.3381,0.3102,0.3119,0.3133,0.3158,0.3176,0.3195,0.3206,0.3223,0.324,0.3264,0.3281,0.3297,0.3319,0.3342,0.336,0.3367,0.3373,0.3368,0.3377,0.3386,0.3389,0.3391,0.3388,0.3369,0.3369,0.3364,0.3364,0.3364]},{"header":{"parameterUnit":"m.s-1","parameterCategory":1,"la1":30.2991,"la2":30.254,"lo1":-89.0895,"lo2":-89.0444,"dy":0.0017,"dx":0.0017,"nx":28,"ny":28,"refTime":"2024-03-19T09:00:00:Z","depth":0,"parameterNumber":3,"parameterNumberName":"V-component_of_WINDS"},"data":[0,0,0,0,0,0,0,0,0,0,0,0,0,0,0,0,0,0,0,0,0,0,0,0,0,0,0,0,0,0,0,0,0,0,0,0,0,0,0,0,0,0,0,0,0,0,0,0,0,0,0,0,0,0,0,0,0,0,2.5319,2.5319,0,2.5344,2.5344,2.5344,2.5341,2.534,2.534,2.5339,2.5362,2.5363,2.5364,0,0,0,0,0,0,0,0,0,0,0,0,0,2.5265,2.5266,2.5319,2.5319,2.532,2.5344,2.5344,2.5344,2.5341,2.534,2.534,2.5339,2.5361,2.5363,2.5364,0,0,0,0,0,0,0,0,0,0,0,0,0,2.5289,2.5267,2.5319,2.5321,2.5321,2.5343,2.5344,2.5344,2.5341,2.534,2.5339,2.5339,2.5361,2.5362,2.5364,2.5385,0,0,2.5368,2.5369,0,0,0,0,0,0,0,0,2.5288,2.5291,2.532,2.5321,2.5321,2.5338,2.5333,2.5358,2.5341,2.5333,2.5339,2.5339,2.5354,2.5356,2.5362,2.5386,2.5387,2.5368,2.5369,2.537,2.537,0,0,0,0,0,0,0,2.5286,2.529,2.5329,2.5321,2.5321,2.5319,2.5322,2.5338,2.5347,2.5334,2.5334,2.5337,2.5354,2.5361,2.5363,2.5387,2.5368,2.537,2.5371,2.5371,2.5429,2.543,0,0,0,0,0,0,2.5284,2.5289,2.5328,2.5329,2.5303,2.5321,2.5324,2.5333,2.5347,2.5348,2.5337,2.5336,2.5358,2.5361,2.5363,2.5389,2.537,2.5371,2.5372,2.5429,2.543,2.543,0,0,0,0,0,0,2.5283,2.5288,2.5327,2.5309,2.5314,2.5322,2.5333,2.5334,2.5341,2.5349,2.535,2.5342,2.5358,2.5361,2.538,2.539,2.5372,2.5373,2.5428,2.5429,2.543,2.544,0,0,0,0,0,0,2.5282,2.5288,2.5297,2.5309,2.5315,2.5344,2.5334,2.5335,2.5343,2.5343,2.5354,2.5356,2.5358,2.5378,2.5381,2.5391,2.5374,2.5427,2.5428,2.543,2.5439,2.5441,2.5443,0,0,0,0,0,2.528,2.5298,2.5297,2.5302,2.5326,2.5344,2.5347,2.5351,2.5344,2.5353,2.5358,2.5355,2.5388,2.538,2.5384,2.5394,2.5426,2.5428,2.5429,2.5438,2.5441,2.5443,0,0,0,0,0,0,2.5285,2.53,2.5299,2.5322,2.5332,2.5344,2.5355,2.5354,2.5365,2.5364,2.5366,2.5369,2.5388,2.5393,2.5383,2.5415,2.5406,2.5409,2.5411,2.5414,2.5416,2.5414,2.5376,0,0,0,0,0,2.5289,2.5304,2.5315,2.5334,2.5339,2.5346,2.5354,2.5356,2.5366,2.537,2.5377,2.5386,2.5398,2.5407,2.5418,2.544,2.5442,2.5449,2.5451,2.5453,2.5455,2.5466,2.5469,2.5435,2.5435,2.5435,0,0,2.5297,2.5307,2.5316,2.5335,2.5343,2.5357,2.535,2.5365,2.5375,2.5372,2.539,2.5395,2.5406,2.5426,2.5435,2.5431,2.5464,2.5455,2.5456,2.5457,2.5468,2.5471,2.5474,2.5436,2.5436,2.5436,0,0,2.5319,2.5328,2.5345,2.5353,2.5366,2.537,2.5374,2.5386,2.539,2.5408,2.5406,2.5418,2.5439,2.5447,2.5453,2.5478,2.5475,2.5481,2.5493,2.5504,2.5506,2.5509,2.5517,2.552,2.5483,2.5483,2.5483,0,2.5327,2.5349,2.5353,2.5369,2.5377,2.5376,2.5392,2.54,2.5415,2.5421,2.5416,2.5443,2.5449,2.5471,2.5477,2.5482,2.5486,2.548,2.5506,2.5508,2.551,2.5518,2.5521,2.5484,2.5484,2.5484,2.5484,0,2.5358,2.5373,2.5385,2.5401,2.5411,2.5427,2.5432,2.5441,2.5442,2.5446,2.5464,2.5473,2.5486,2.5491,2.5492,2.5513,2.551,2.5505,2.5496,2.5514,2.5522,2.5525,2.5485,2.5485,2.5484,2.5484,0,0,2.5384,2.5402,2.5406,2.5414,2.5427,2.5439,2.5454,2.5468,2.5476,2.5486,2.5498,2.5516,2.5513,2.552,2.5521,2.5531,2.5549,2.5525,2.5525,2.5529,2.5572,2.5575,2.5578,2.5547,2.5548,2.5548,2.5571,0,2.5407,2.5435,2.5439,2.5464,2.5477,2.5476,2.5489,2.5499,2.5503,2.5515,2.5519,2.5532,2.5526,2.553,2.554,2.5545,2.5557,2.5543,2.5558,2.5558,2.5555,2.5582,2.5586,2.5606,2.5574,2.5574,2.5575,0,2.5437,2.545,2.5476,2.5488,2.5494,2.5506,2.5519,2.553,2.554,2.5543,2.5551,2.5551,2.5566,2.5556,2.5576,2.5566,2.5573,2.5576,2.5577,2.5578,2.5567,2.5584,2.5613,2.5616,2.5579,2.5579,2.5579,0,2.5453,2.5476,2.5495,2.5501,2.5516,2.5524,2.553,2.554,2.5548,2.5559,2.5564,2.5576,2.5582,2.5591,2.5594,2.5587,2.5614,2.5605,2.5616,2.5615,2.5621,2.5621,2.5651,2.5625,2.5625,2.5625,2.5625,0,2.5478,2.5494,2.5502,2.5514,2.5531,2.5535,2.5552,2.5558,2.5566,2.5578,2.5577,2.5588,2.5591,2.5602,2.5605,2.562,2.5623,2.5625,2.5625,2.5625,2.5625,2.5629,2.5627,2.5626,2.5626,2.5626,2.5626,0,2.5499,2.5505,2.5525,2.5537,2.5541,2.5553,2.5563,2.5573,2.5578,2.5592,2.5596,2.5603,2.5616,2.5619,2.5635,2.5636,2.5655,2.5654,2.5651,2.5651,2.5662,2.5661,2.5696,2.5701,2.5672,2.5672,2.5673,0,2.5514,2.5527,2.554,2.5549,2.5555,2.5569,2.5577,2.5581,2.559,2.5602,2.5611,2.5624,2.5635,2.5655,2.5661,2.5672,2.5671,2.5683,2.5673,2.5672,2.5671,2.567,2.5671,2.5685,2.5685,2.5685,2.5685,0,2.5541,2.5543,2.5556,2.557,2.558,2.5591,2.5601,2.5608,2.5613,2.5622,2.5636,2.5645,2.5661,2.5673,2.5685,2.569,2.5688,2.5689,2.5692,2.5691,2.5689,2.569,2.5656,2.5688,2.5687,2.5687,2.5687,2.5687,2.5559,2.557,2.5581,2.5595,2.5604,2.5613,2.5624,2.563,2.5642,2.5656,2.5657,2.5672,2.5681,2.5697,2.5702,2.5713,2.571,2.5714,2.5715,2.5716,2.5717,2.5688,2.5715,2.5715,2.5715,2.5715,2.5715,0,2.5585,2.5593,2.5606,2.5621,2.5631,2.563,2.5641,2.565,2.5663,2.5672,2.5683,2.5698,2.5711,2.5717,2.5729,2.5737,2.5736,2.574,2.5739,2.574,2.572,2.5716,2.574,2.574,2.574,2.574,2.574,2.574,2.56,2.5619,2.5622,2.5644,2.5651,2.5666,2.5673,2.5681,2.5689,2.5706,2.5717,2.5721,2.5729,2.5742,2.5753,2.5754,2.5758,2.5762,2.5763,2.5744,2.5741,2.5739,2.5735,2.5763,2.5763,2.5783,2.5783,2.5783]}]]